Total_Precipitation_Accumulation
0.97 0.88 0.88 1.02 0.97 0.97 1.06 1.14 1.00 0.91 0.91 0.88 0.83 0.76 0.69 0.62 0.61 0.48 0.50 0.54 0.62 0.80 1.07 1.09 0.93 0.65 0.52 0.59 0.69 0.74 0.78 0.84 0.97 0.94 0.80 0.71 0.66 0.56 0.45 0.32 0.26 0.19 0.15
1.02 1.03 0.92 1.00 1.13 1.15 1.10 1.08 1.05 0.94 0.89 0.91 0.87 0.86 0.81 0.63 0.60 0.57 0.55 0.55 0.51 0.54 0.80 1.08 1.05 0.84 0.68 0.66 0.71 0.74 0.73 0.74 0.85 0.86 0.77 0.68 0.70 0.61 0.47 0.34 0.31 0.23 0.19
1.03 1.04 0.92 0.95 1.08 1.25 1.20 1.12 1.03 0.99 0.83 0.78 0.84 0.86 0.85 0.71 0.65 0.69 0.61 0.59 0.51 0.50 0.65 1.01 1.18 1.03 0.90 0.85 0.75 0.72 0.71 0.70 0.74 0.80 0.75 0.68 0.63 0.59 0.48 0.37 0.34 0.30 0.27
1.04 1.12 1.03 0.98 1.12 1.30 1.43 1.45 1.25 1.14 0.98 0.86 0.87 0.85 0.80 0.79 0.74 0.69 0.65 0.67 0.63 0.54 0.59 0.74 1.01 1.22 1.11 0.93 0.83 0.78 0.70 0.61 0.61 0.68 0.66 0.58 0.49 0.45 0.42 0.40 0.41 0.42 0.40
0.96 1.17 1.24 1.18 1.22 1.36 1.41 1.42 1.38 1.19 1.10 1.03 0.90 0.84 0.75 0.73 0.76 0.64 0.66 0.70 0.73 0.63 0.62 0.55 0.60 0.75 0.88 0.99 0.98 0.86 0.79 0.65 0.57 0.57 0.55 0.45 0.36 0.35 0.37 0.38 0.41 0.41 0.42
1.18 1.34 1.42 1.40 1.40 1.44 1.40 1.50 1.63 1.38 1.17 1.17 1.09 0.92 0.80 0.72 0.73 0.68 0.72 0.70 0.75 0.73 0.67 0.57 0.52 0.38 0.46 0.72 0.86 0.85 0.88 0.80 0.61 0.54 0.54 0.43 0.33 0.31 0.32 0.32 0.35 0.36 0.38
1.40 1.54 1.63 1.65 1.57 1.47 1.49 1.64 1.96 1.83 1.45 1.28 1.30 1.15 0.93 0.78 0.79 0.70 0.70 0.77 0.75 0.76 0.80 0.74 0.58 0.50 0.38 0.37 0.44 0.66 0.81 0.92 0.82 0.68 0.61 0.54 0.38 0.28 0.26 0.27 0.29 0.32 0.34
1.49 1.57 1.78 1.88 1.81 1.76 1.82 1.82 2.00 2.11 1.86 1.63 1.54 1.67 1.42 1.14 0.80 0.63 0.65 0.69 0.75 0.81 0.78 0.84 0.77 0.64 0.55 0.47 0.28 0.35 0.52 0.76 0.90 0.81 0.73 0.68 0.51 0.33 0.27 0.26 0.26 0.30 0.32
1.70 1.66 1.77 1.97 1.93 1.87 1.87 2.02 2.24 2.45 2.38 2.15 1.90 1.94 1.64 1.41 1.28 0.80 0.59 0.64 0.72 0.79 0.79 0.88 0.90 0.80 0.72 0.68 0.49 0.30 0.26 0.41 0.74 0.86 0.82 0.72 0.62 0.48 0.39 0.31 0.29 0.32 0.32
1.62 1.61 1.72 1.93 2.06 2.13 2.15 2.22 2.20 2.44 2.60 2.42 2.34 2.04 1.73 1.57 1.60 1.35 0.90 0.66 0.69 0.73 0.76 0.78 0.82 0.89 0.89 0.83 0.72 0.42 0.27 0.24 0.54 0.90 1.02 0.89 0.71 0.57 0.49 0.41 0.37 0.38 0.37
1.70 1.61 1.66 1.73 1.78 1.85 1.96 2.09 2.16 2.32 2.41 2.51 2.50 2.34 2.10 1.89 1.45 1.40 1.40 1.12 0.87 0.67 0.66 0.75 0.83 0.88 0.91 0.91 0.94 0.65 0.44 0.27 0.35 0.70 1.05 1.18 0.97 0.73 0.58 0.48 0.41 0.39 0.35
1.67 1.58 1.53 1.64 1.66 1.66 1.78 1.89 1.98 2.19 2.31 2.41 2.47 2.34 2.16 2.06 1.82 1.55 1.40 1.35 1.22 0.90 0.73 0.72 0.76 0.83 0.91 0.94 0.92 0.87 0.66 0.41 0.32 0.47 0.73 1.04 1.09 0.95 0.77 0.63 0.54 0.50 0.46
1.31 1.30 1.24 1.30 1.43 1.48 1.65 1.72 1.66 1.71 1.86 2.03 2.19 2.21 2.15 2.02 2.00 1.89 1.73 1.57 1.36 1.03 0.87 0.73 0.66 0.77 0.88 1.01 1.06 1.12 0.76 0.56 0.43 0.41 0.46 0.60 0.77 0.88 0.88 0.82 0.81 0.80 0.74
1.00 0.97 0.97 0.98 1.04 1.12 1.33 1.54 1.52 1.54 1.60 1.67 1.76 1.99 2.07 2.00 2.00 1.82 1.68 1.66 1.46 1.21 1.00 0.79 0.64 0.62 0.73 0.89 1.21 1.31 0.83 0.69 0.55 0.49 0.48 0.46 0.49 0.55 0.71 0.82 0.87 0.95 0.97
0.78 0.75 0.78 0.86 0.91 0.91 1.00 1.13 1.32 1.40 1.45 1.52 1.55 1.70 1.77 1.80 1.77 1.65 1.64 1.59 1.49 1.27 1.11 0.95 0.83 0.73 0.73 0.81 1.10 1.05 0.89 0.83 0.71 0.63 0.56 0.51 0.48 0.46 0.50 0.57 0.65 0.72 0.77
0.70 0.70 0.67 0.68 0.74 0.76 0.85 0.95 1.02 1.12 1.19 1.35 1.52 1.64 1.64 1.65 1.67 1.60 1.56 1.60 1.52 1.32 1.13 0.99 0.87 0.81 0.91 0.89 1.06 0.95 0.99 1.08 0.82 0.68 0.61 0.59 0.52 0.45 0.38 0.35 0.35 0.38 0.42
0.55 0.56 0.58 0.64 0.65 0.66 0.68 0.69 0.74 0.79 0.86 0.97 1.03 1.14 1.34 1.53 1.58 1.57 1.59 1.61 1.58 1.44 1.21 1.11 0.92 0.90 1.03 1.05 1.04 0.98 1.02 1.07 0.88 0.75 0.61 0.56 0.54 0.47 0.43 0.37 0.32 0.28 0.29
0.47 0.48 0.54 0.58 0.57 0.62 0.65 0.65 0.64 0.65 0.74 0.83 0.84 0.85 0.95 1.17 1.32 1.42 1.47 1.49 1.53 1.52 1.36 1.31 1.22 1.02 0.99 1.05 1.15 1.22 1.14 1.09 1.06 1.04 0.90 0.69 0.59 0.53 0.47 0.41 0.34 0.28 0.26
0.58 0.61 0.61 0.64 0.61 0.63 0.62 0.63 0.66 0.66 0.69 0.75 0.78 0.80 0.86 0.96 1.10 1.18 1.28 1.37 1.44 1.55 1.51 1.32 1.34 1.30 1.13 1.10 1.14 1.21 1.24 1.30 1.21 1.16 1.21 1.05 0.84 0.71 0.63 0.55 0.46 0.37 0.31
0.51 0.54 0.62 0.70 0.78 0.83 0.81 0.76 0.74 0.72 0.68 0.70 0.77 0.84 0.85 0.86 0.96 1.18 1.30 1.36 1.39 1.48 1.58 1.49 1.41 1.40 1.27 1.18 1.17 1.19 1.32 1.39 1.38 1.21 1.12 1.09 1.04 0.90 0.76 0.66 0.57 0.48 0.43
0.44 0.45 0.52 0.61 0.71 0.80 0.85 0.83 0.69 0.59 0.61 0.66 0.66 0.67 0.76 0.83 0.85 0.99 1.15 1.37 1.38 1.46 1.52 1.56 1.47 1.34 1.24 1.16 1.11 1.10 1.19 1.37 1.41 1.38 1.31 1.15 1.04 0.89 0.78 0.72 0.67 0.61 0.53
0.38 0.39 0.43 0.42 0.44 0.49 0.64 0.63 0.51 0.43 0.50 0.59 0.66 0.69 0.69 0.70 0.72 0.75 0.78 1.02 1.21 1.31 1.38 1.38 1.40 1.29 1.19 1.12 1.19 1.17 1.11 1.18 1.29 1.31 1.18 1.25 1.21 1.05 0.91 0.80 0.82 0.84 0.77
0.34 0.36 0.31 0.27 0.29 0.32 0.37 0.35 0.40 0.43 0.47 0.52 0.60 0.69 0.74 0.71 0.77 0.85 0.81 0.84 0.93 0.99 1.09 1.19 1.20 1.15 1.13 1.08 1.14 1.18 1.14 1.08 1.00 1.09 1.09 1.15 1.19 1.09 0.98 0.87 0.85 0.80 0.78
0.28 0.36 0.31 0.29 0.32 0.28 0.30 0.34 0.37 0.41 0.55 0.61 0.60 0.61 0.72 0.78 0.83 0.98 0.97 1.04 0.97 0.86 0.84 0.88 0.98 1.02 0.99 1.09 1.16 1.30 1.33 1.19 1.10 1.12 1.08 1.03 1.01 0.95 0.88 0.87 0.87 0.73 0.66
0.20 0.18 0.22 0.37 0.37 0.33 0.40 0.38 0.32 0.41 0.54 0.62 0.57 0.60 0.72 0.82 0.95 1.04 1.09 1.12 1.01 0.91 0.94 1.00 1.05 1.09 1.11 1.18 1.23 1.27 1.29 1.26 1.19 1.17 1.05 0.92 0.86 0.86 0.86 0.82 0.80 0.80 0.74
0.09 0.10 0.14 0.27 0.33 0.34 0.34 0.24 0.25 0.38 0.51 0.60 0.61 0.62 0.83 0.84 0.91 0.95 1.01 1.12 1.13 0.99 0.92 0.93 0.98 1.01 1.01 1.09 1.23 1.24 1.31 1.34 1.21 1.15 1.05 0.90 0.85 0.94 1.00 0.88 0.75 0.70 0.71